FW3031 Weather Reports


time (UTC)temp
F
wind
direction
speed
knots
gust
knots
rain 1hr
in
rain 24hr
in
rain mn
in
humidity
%
barometer
mb
20260508041604 87 190 0.0 2.6 0.00 0.00 0.00 41 1009.2
20260508041526 87 190 0.9 2.6 0.00 0.00 0.00 42 1009.4
20260508041027 87 190 0.0 1.7 0.00 0.00 0.00 42 1009.2
20260508040526 88 190 0.0 2.6 0.00 0.00 0.00 42 1009.1
20260508040110 88 190 0.0 2.6 0.00 0.00 0.00 41 1008.8
20260508040026 88 190 0.0 2.6 0.00 0.00 0.00 42 1009.0
20260508035526 88 190 0.0 0.9 0.00 0.00 0.00 42 1008.9
20260508035025 88 190 0.0 0.9 0.00 0.00 0.00 42 1008.7
20260508034559 88 0 0.0 5.2 0.00 0.00 0.00 41 1008.5
20260508034534 88 190 0.0 5.2 0.00 0.00 0.00 41 1008.6
20260508034024 88 190 2.6 6.1 0.00 0.00 0.00 41 1008.6
20260508033527 89 190 0.9 6.1 0.00 0.00 0.00 41 1008.5
20260508033102 89 190 1.7 6.1 0.00 0.00 0.00 40 1008.3
20260508033026 89 190 1.7 6.1 0.00 0.00 0.00 40 1008.5
20260508032524 89 190 0.9 6.1 0.00 0.00 0.00 40 1008.3
20260508032025 90 190 0.9 7.0 0.00 0.00 0.00 39 1008.2
20260508031608 90 190 1.7 7.0 0.00 0.00 0.00 39 1008.1
20260508031524 90 190 1.7 7.0 0.00 0.00 0.00 39 1008.2
20260508031024 90 190 0.0 6.1 0.00 0.00 0.00 39 1008.0
20260508030524 90 190 0.9 6.1 0.00 0.00 0.00 39 1007.7
20260508030124 90 190 1.7 7.0 0.00 0.00 0.00 39 1007.3
20260508030024 90 190 1.7 7.0 0.00 0.00 0.00 39 1007.3
20260508025523 91 190 3.5 7.0 0.00 0.00 0.00 39 1007.0
20260508025022 91 190 3.5 6.1 0.00 0.00 0.00 38 1007.0
20260508024605 92 190 3.5 7.0 0.00 0.00 0.00 37 1006.8
20260508024529 92 190 3.5 7.0 0.00 0.00 0.00 37 1006.9
20260508024023 92 190 1.7 6.1 0.00 0.00 0.00 36 1006.8
20260508023523 92 190 2.6 5.2 0.00 0.00 0.00 35 1006.8
20260508023058 93 190 0.9 3.5 0.00 0.00 0.00 34 1006.5
20260508023026 93 190 0.9 3.5 0.00 0.00 0.00 35 1006.7
20260508022521 93 190 0.0 2.6 0.00 0.00 0.00 35 1006.6
20260508022022 93 190 0.9 2.6 0.00 0.00 0.00 34 1006.4
20260508021558 93 0 0.0 2.6 0.00 0.00 0.00 34 1006.1
20260508021521 93 190 0.0 2.6 0.00 0.00 0.00 34 1006.2
20260508021021 94 190 0.0 1.7 0.00 0.00 0.00 33 1006.2
20260508020522 94 190 0.0 1.7 0.00 0.00 0.00 33 1006.1
20260508020059 94 0 0.0 7.0 0.00 0.00 0.00 33 1005.8
20260508020021 94 190 0.0 6.1 0.00 0.00 0.00 33 1005.9
20260508015521 94 190 1.7 7.0 0.00 0.00 0.00 33 1005.7
20260508015020 95 190 2.6 7.0 0.00 0.00 0.00 33 1005.5
20260508014558 95 190 0.9 7.8 0.00 0.00 0.00 31 1005.2
20260508014520 95 190 1.7 7.0 0.00 0.00 0.00 32 1005.3
20260508014020 95 190 0.9 7.8 0.00 0.00 0.00 31 1005.1
20260508013519 96 190 1.7 7.8 0.00 0.00 0.00 29 1005.0
20260508013058 96 190 3.5 7.8 0.00 0.00 0.00 27 1004.8
20260508013021 96 190 2.6 7.8 0.00 0.00 0.00 27 1004.9
20260508012519 97 190 2.6 6.1 0.00 0.00 0.00 25 1004.7
20260508012019 97 190 0.9 4.3 0.00 0.00 0.00 24 1004.6
20260508011611 97 0 0.0 3.5 0.00 0.00 0.00 24 1004.4
20260508011523 97 190 0.0 2.6 0.00 0.00 0.00 24 1004.4
20260508011019 98 190 0.9 3.5 0.00 0.00 0.00 24 1004.4
20260508010519 98 190 0.9 4.3 0.00 0.00 0.00 24 1004.3
20260508010108 98 190 0.9 6.1 0.00 0.00 0.00 23 1004.1
20260508010019 98 190 0.0 6.1 0.00 0.00 0.00 24 1004.2
20260508005520 99 190 0.9 3.5 0.00 0.00 0.00 23 1004.0
20260508005018 99 190 0.0 4.3 0.00 0.00 0.00 23 1003.9
20260508004604 100 190 0.9 3.5 0.00 0.00 0.00 22 1003.9
20260508004524 100 190 0.0 3.5 0.00 0.00 0.00 23 1004.0
20260508004017 100 190 0.0 4.3 0.00 0.00 0.00 22 1003.9
20260508003517 100 190 1.7 5.2 0.00 0.00 0.00 22 1003.9
20260508003111 101 0 1.7 5.2 0.00 0.00 0.00 21 1003.8
20260508003017 101 190 2.6 5.2 0.00 0.00 0.00 22 1003.8
20260508002518 101 190 1.7 6.1 0.00 0.00 0.00 22 1003.7
20260508002018 101 190 0.9 6.1 0.00 0.00 0.00 22 1003.7
20260508001556 101 190 2.6 5.2 0.00 0.00 0.00 21 1003.7
20260508001517 101 190 1.7 5.2 0.00 0.00 0.00 22 1003.7
20260508001018 102 190 1.7 5.2 0.00 0.00 0.00 21 1003.7
20260508000519 101 190 0.9 6.1 0.00 0.00 0.00 22 1003.6
20260508000057 102 190 2.6 6.1 0.00 0.00 0.00 21 1003.6
20260508000016 101 190 2.6 6.1 0.00 0.00 0.00 22 1003.6
20260507235516 102 190 2.6 6.1 0.00 0.00 0.00 22 1003.5
20260507235015 101 190 1.7 6.1 0.00 0.00 0.00 22 1003.5
20260507234558 101 190 1.7 6.1 0.00 0.00 0.00 22 1003.5
20260507234520 101 190 0.9 6.1 0.00 0.00 0.00 23 1003.5
20260507234017 101 190 1.7 7.0 0.00 0.00 0.00 22 1003.5
20260507233520 102 190 2.6 7.0 0.00 0.00 0.00 22 1003.5
20260507233059 102 190 2.6 6.1 0.00 0.00 0.00 22 1003.6
20260507233020 102 190 1.7 6.1 0.00 0.00 0.00 23 1003.5
20260507232514 102 190 2.6 6.1 0.00 0.00 0.00 23 1003.5
20260507232014 102 190 1.7 7.0 0.00 0.00 0.00 23 1003.5
20260507231608 102 190 2.6 7.0 0.00 0.00 0.00 23 1003.5
20260507231524 102 190 1.7 7.0 0.00 0.00 0.00 23 1003.5
20260507231016 102 190 2.6 7.0 0.00 0.00 0.00 23 1003.5
20260507230513 102 190 2.6 7.0 0.00 0.00 0.00 23 1003.4
20260507230058 102 190 0.0 7.8 0.00 0.00 0.00 23 1003.5
20260507230013 101 190 0.0 7.8 0.00 0.00 0.00 23 1003.4
20260507225512 102 190 1.7 8.7 0.00 0.00 0.00 23 1003.5
20260507225012 102 190 3.5 8.7 0.00 0.00 0.00 23 1003.5
20260507224607 102 190 3.5 7.0 0.00 0.00 0.00 22 1003.6
20260507224512 102 190 2.6 7.0 0.00 0.00 0.00 23 1003.6
20260507224011 102 190 0.9 8.7 0.00 0.00 0.00 23 1003.6
20260507223512 102 190 3.5 8.7 0.00 0.00 0.00 23 1003.6
20260507223058 102 190 1.7 7.8 0.00 0.00 0.00 22 1003.6
20260507223010 102 190 0.9 5.2 0.00 0.00 0.00 23 1003.6
20260507222510 102 190 0.9 7.8 0.00 0.00 0.00 23 1003.8
20260507222008 102 190 2.6 7.8 0.00 0.00 0.00 23 1003.9
20260507221559 103 190 1.7 5.2 0.00 0.00 0.00 23 1003.8
20260507221514 103 190 1.7 5.2 0.00 0.00 0.00 23 1003.8
20260507221011 103 190 0.0 3.5 0.00 0.00 0.00 24 1003.8
20260507220505 103 190 0.0 1.7 0.00 0.00 0.00 24 1003.9
20260507220101 102 0 0.0 6.1 0.00 0.00 0.00 24 1004.1
20260507220006 102 190 0.0 2.6 0.00 0.00 0.00 24 1004.1
20260507215505 101 190 0.0 6.1 0.00 0.00 0.00 25 1004.2
20260507215105 101 190 2.6 6.1 0.00 0.00 0.00 25 1004.3
20260507214610 101 190 2.6 7.0 0.00 0.00 0.00 24 1004.4
20260507214502 101 190 1.7 7.0 0.00 0.00 0.00 25 1004.3
20260507214102 102 190 0.9 6.1 0.00 0.00 0.00 25 1004.4
20260507213559 101 190 2.6 7.0 0.00 0.00 0.00 25 1004.4
20260507213108 101 190 1.7 7.0 0.00 0.00 0.00 25 1004.6
20260507212558 101 190 0.9 5.2 0.00 0.00 0.00 25 1004.6
20260507212056 101 190 0.0 6.1 0.00 0.00 0.00 26 1004.7
20260507211558 101 190 1.7 7.0 0.00 0.00 0.00 25 1004.9
20260507211556 101 190 0.9 6.1 0.00 0.00 0.00 26 1004.8
20260507211055 101 190 2.6 7.0 0.00 0.00 0.00 26 1004.9
20260507210554 101 190 2.6 7.0 0.00 0.00 0.00 26 1004.9
20260507210057 100 190 0.9 4.3 0.00 0.00 0.00 26 1005.2
20260507210053 100 190 0.9 4.3 0.00 0.00 0.00 27 1005.0
20260507205552 100 190 0.0 4.3 0.00 0.00 0.00 27 1005.2
20260507205051 100 190 2.6 5.2 0.00 0.00 0.00 27 1005.3
20260507204612 100 190 0.0 9.6 0.00 0.00 0.00 26 1005.5
20260507204551 100 190 0.9 9.6 0.00 0.00 0.00 27 1005.4
20260507204050 100 190 4.3 9.6 0.00 0.00 0.00 27 1005.6
20260507203548 100 190 0.0 3.5 0.00 0.00 0.00 27 1005.6
20260507203058 99 0 0.0 4.3 0.00 0.00 0.00 28 1005.9
20260507203054 99 190 0.0 4.3 0.00 0.00 0.00 28 1005.8
20260507202547 99 190 1.7 4.3 0.00 0.00 0.00 28 1006.0
20260507202044 99 190 0.0 7.8 0.00 0.00 0.00 28 1006.1
20260507201556 99 190 3.5 7.8 0.00 0.00 0.00 28 1006.3
20260507201544 99 190 4.3 7.8 0.00 0.00 0.00 28 1006.2
20260507201048 99 190 0.9 6.1 0.00 0.00 0.00 28 1006.4
20260507200541 99 190 1.7 9.6 0.00 0.00 0.00 28 1006.5
20260507200057 99 190 3.5 9.6 0.00 0.00 0.00 28 1006.5
20260507200048 99 190 4.3 9.6 0.00 0.00 0.00 28 1006.6
20260507195540 99 190 0.9 5.2 0.00 0.00 0.00 29 1006.7
20260507195038 99 190 0.9 5.2 0.00 0.00 0.00 30 1006.9
20260507194559 99 190 0.9 3.5 0.00 0.00 0.00 29 1006.9
20260507194537 99 190 0.9 5.2 0.00 0.00 0.00 30 1007.0
20260507194035 98 190 0.0 4.3 0.00 0.00 0.00 31 1007.1
20260507193535 98 190 1.7 4.3 0.00 0.00 0.00 31 1007.3
20260507193108 98 190 1.7 5.2 0.00 0.00 0.00 31 1007.3
20260507193034 97 190 1.7 5.2 0.00 0.00 0.00 31 1007.5
20260507192531 97 190 1.7 5.2 0.00 0.00 0.00 32 1007.6
20260507192030 97 190 0.9 6.1 0.00 0.00 0.00 32 1007.8
20260507191600 97 190 2.6 7.8 0.00 0.00 0.00 32 1007.8
20260507191531 97 190 1.7 7.8 0.00 0.00 0.00 32 1007.9
20260507191027 97 190 2.6 7.8 0.00 0.00 0.00 31 1008.1
20260507190526 97 190 0.9 2.6 0.00 0.00 0.00 32 1008.1
20260507190104 97 190 0.9 4.3 0.00 0.00 0.00 32 1008.0
20260507190025 97 190 0.9 4.3 0.00 0.00 0.00 32 1008.2
20260507185526 96 190 0.9 4.3 0.00 0.00 0.00 33 1008.3
20260507185022 96 190 0.9 4.3 0.00 0.00 0.00 33 1008.4
20260507184558 96 190 0.0 5.2 0.00 0.00 0.00 33 1008.4
20260507184522 96 190 0.0 5.2 0.00 0.00 0.00 33 1008.5
20260507184021 96 190 2.6 5.2 0.00 0.00 0.00 33 1008.6
20260507183519 95 190 0.0 3.5 0.00 0.00 0.00 34 1008.8
20260507183100 95 190 0.9 6.1 0.00 0.00 0.00 34 1008.8
20260507183031 95 190 0.9 4.3 0.00 0.00 0.00 34 1008.9
20260507182516 95 190 0.0 6.1 0.00 0.00 0.00 35 1009.0
20260507182017 94 190 0.9 6.1 0.00 0.00 0.00 36 1009.2
20260507181557 93 190 1.7 6.1 0.00 0.00 0.00 36 1009.3
20260507181514 93 190 1.7 6.1 0.00 0.00 0.00 36 1009.5
20260507181015 93 190 1.7 6.1 0.00 0.00 0.00 36 1009.7
20260507180512 93 190 0.9 7.8 0.00 0.00 0.00 36 1009.8
20260507180105 93 190 2.6 7.8 0.00 0.00 0.00 35 1009.6
20260507180013 93 190 1.7 7.8 0.00 0.00 0.00 36 1009.8
20260507175513 93 190 2.6 7.0 0.00 0.00 0.00 36 1009.9
20260507175009 93 190 0.0 2.6 0.00 0.00 0.00 36 1010.1
20260507174559 93 0 0.9 2.6 0.00 0.00 0.00 35 1010.0
20260507174510 93 190 0.9 2.6 0.00 0.00 0.00 36 1010.2
20260507174006 93 190 0.9 4.3 0.00 0.00 0.00 37 1010.2
20260507173504 92 190 0.0 4.3 0.00 0.00 0.00 37 1010.3
20260507173059 92 0 0.0 2.6 0.00 0.00 0.00 38 1010.2
20260507173004 91 190 0.0 2.6 0.00 0.00 0.00 38 1010.4
20260507172503 91 190 0.9 2.6 0.00 0.00 0.00 39 1010.5
20260507172003 91 190 1.7 3.5 0.00 0.00 0.00 39 1010.7
20260507171604 91 190 0.9 4.3 0.00 0.00 0.00 38 1010.4
20260507171502 91 190 0.9 3.5 0.00 0.00 0.00 38 1010.8
20260507171002 90 190 0.0 4.3 0.00 0.00 0.00 40 1010.9
20260507170603 90 190 1.7 4.3 0.00 0.00 0.00 39 1011.0
20260507170100 90 190 0.0 5.2 0.00 0.00 0.00 40 1011.1
20260507170056 90 190 1.7 5.2 0.00 0.00 0.00 40 1010.7
20260507165600 89 190 0.0 1.7 0.00 0.00 0.00 41 1011.2
20260507165101 89 190 0.0 1.7 0.00 0.00 0.00 42 1011.3
20260507164611 89 190 0.0 1.7 0.00 0.00 0.00 41 1011.4
20260507164557 89 0 0.9 1.7 0.00 0.00 0.00 41 1011.1
20260507164058 89 190 0.0 0.0 0.00 0.00 0.00 41 1011.6
20260507163559 88 190 0.0 2.6 0.00 0.00 0.00 43 1011.7
20260507163059 88 0 0.9 2.6 0.00 0.00 0.00 43 1011.4
20260507163055 87 190 0.0 2.6 0.00 0.00 0.00 43 1011.8
20260507162556 87 190 0.9 2.6 0.00 0.00 0.00 43 1011.8
20260507162054 87 190 0.0 2.6 0.00 0.00 0.00 44 1011.9
20260507161610 87 190 0.0 2.6 0.00 0.00 0.00 44 1011.6
20260507161558 87 190 0.0 2.6 0.00 0.00 0.00 44 1012.0
20260507161051 86 190 0.0 2.6 0.00 0.00 0.00 45 1012.1
20260507160550 86 190 0.0 1.7 0.00 0.00 0.00 46 1012.1
20260507160051 85 190 0.0 2.6 0.00 0.00 0.00 46 1012.2
20260507155550 85 190 0.0 3.5 0.00 0.00 0.00 46 1012.4
20260507155050 85 190 0.9 3.5 0.00 0.00 0.00 46 1012.5
20260507154558 85 0 0.0 2.6 0.00 0.00 0.00 46 1012.1
20260507154551 85 190 0.0 2.6 0.00 0.00 0.00 47 1012.5
20260507154048 84 190 0.0 2.6 0.00 0.00 0.00 47 1012.6
20260507153547 84 190 0.0 1.7 0.00 0.00 0.00 48 1012.6
20260507153059 84 190 0.9 2.6 0.00 0.00 0.00 47 1012.1
20260507153049 84 190 0.9 2.6 0.00 0.00 0.00 48 1012.6
20260507152546 84 190 0.0 2.6 0.00 0.00 0.00 48 1012.6
20260507152047 84 190 0.0 2.6 0.00 0.00 0.00 49 1012.7
20260507151558 83 190 0.0 1.7 0.00 0.00 0.00 49 1012.2
20260507151545 83 190 0.0 1.7 0.00 0.00 0.00 49 1012.7
20260507151042 83 190 0.0 1.7 0.00 0.00 0.00 50 1012.7
20260507150541 82 190 0.0 1.7 0.00 0.00 0.00 50 1012.7
20260507150100 83 0 0.0 0.0 0.00 0.00 0.00 50 1012.3
20260507150042 82 190 0.0 0.0 0.00 0.00 0.00 50 1012.8
20260507145541 82 190 0.0 0.0 0.00 0.00 0.00 51 1012.8
20260507145040 82 190 0.0 0.0 0.00 0.00 0.00 51 1012.8
20260507144600 82 0 0.0 0.0 0.00 0.00 0.00 51 1012.2
20260507144538 82 190 0.0 0.0 0.00 0.00 0.00 51 1012.8
20260507144037 81 190 0.0 0.0 0.00 0.00 0.00 53 1012.8
20260507143535 81 190 0.0 0.0 0.00 0.00 0.00 53 1012.8
20260507143102 80 0 0.0 0.0 0.00 0.00 0.00 54 1012.3
20260507143036 80 190 0.0 0.0 0.00 0.00 0.00 54 1012.8
20260507142533 79 190 0.0 0.0 0.00 0.00 0.00 56 1012.8
20260507142033 78 190 0.0 0.0 0.00 0.00 0.00 56 1012.8
20260507141603 78 0 0.0 0.0 0.00 0.00 0.00 57 1012.2
20260507141533 77 190 0.0 0.0 0.00 0.00 0.00 58 1012.9
20260507141033 77 190 0.0 0.0 0.00 0.00 0.00 59 1012.8
20260507140532 76 190 0.0 0.0 0.00 0.00 0.00 60 1012.8
20260507140125 76 0 0.0 0.0 0.00 0.00 0.00 60 1012.1
20260507140032 76 190 0.0 0.0 0.00 0.00 0.00 60 1012.8
20260507135532 75 190 0.0 0.0 0.00 0.00 0.00 62 1012.8
20260507135032 75 190 0.0 0.0 0.00 0.00 0.00 62 1012.8
20260507134600 74 0 0.0 0.9 0.00 0.00 0.00 62 1012.0
20260507134539 74 190 0.0 0.0 0.00 0.00 0.00 63 1012.8
20260507134032 74 190 0.0 0.9 0.00 0.00 0.00 63 1012.7
20260507133529 73 190 0.0 0.9 0.00 0.00 0.00 64 1012.7
20260507133100 73 0 0.0 0.9 0.00 0.00 0.00 64 1011.8
20260507133030 73 190 0.0 0.9 0.00 0.00 0.00 65 1012.7
20260507132529 72 190 0.0 0.9 0.00 0.00 0.00 65 1012.6
20260507132029 72 190 0.0 0.0 0.00 0.00 0.00 66 1012.6
20260507131616 72 0 0.0 0.0 0.00 0.00 0.00 66 1011.7
20260507131535 72 190 0.0 0.0 0.00 0.00 0.00 66 1012.5
20260507131028 71 190 0.0 0.0 0.00 0.00 0.00 67 1012.4
20260507130526 71 190 0.0 1.7 0.00 0.00 0.00 67 1012.3
20260507130112 71 0 0.9 2.6 0.00 0.00 0.00 67 1011.5
20260507130029 71 190 0.9 1.7 0.00 0.00 0.00 67 1012.2
20260507125525 71 190 0.0 2.6 0.00 0.00 0.00 67 1012.1
20260507125023 71 190 0.0 2.6 0.00 0.00 0.00 68 1012.0
20260507124609 71 0 0.0 0.0 0.00 0.00 0.00 67 1011.3
20260507124523 71 190 0.0 0.0 0.00 0.00 0.00 68 1012.0
20260507124022 71 190 0.0 0.0 0.00 0.00 0.00 67 1011.9
20260507123524 71 190 0.0 0.0 0.00 0.00 0.00 67 1011.9
20260507123101 71 0 0.0 0.0 0.00 0.00 0.00 67 1011.2
20260507123022 71 190 0.0 0.0 0.00 0.00 0.00 67 1011.8
20260507122521 70 190 0.0 0.0 0.00 0.00 0.00 68 1011.8
20260507122022 70 190 0.0 1.7 0.00 0.00 0.00 68 1011.8
20260507121558 70 0 0.0 1.7 0.00 0.00 0.00 67 1011.2
20260507121521 70 190 0.0 1.7 0.00 0.00 0.00 68 1011.8
20260507121020 71 190 0.0 1.7 0.00 0.00 0.00 67 1011.7
20260507120519 71 190 0.0 0.0 0.00 0.00 0.00 67 1011.6
20260507120058 71 0 0.0 0.0 0.00 0.00 0.00 67 1011.1
20260507120018 71 190 0.0 0.0 0.00 0.00 0.00 68 1011.6
20260507115517 71 190 0.0 0.0 0.00 0.00 0.00 68 1011.4
20260507115016 71 190 0.0 0.0 0.00 0.00 0.00 67 1011.4
20260507114605 71 0 0.0 0.0 0.00 0.00 0.00 66 1010.7
20260507114524 71 190 0.0 0.0 0.00 0.00 0.00 67 1011.3
20260507114015 71 190 0.0 0.0 0.00 0.00 0.00 66 1011.2
20260507113513 71 190 0.0 0.0 0.00 0.00 0.00 66 1011.2
20260507113100 71 0 0.0 0.0 0.00 0.00 0.00 65 1010.7
20260507113013 71 190 0.0 0.0 0.00 0.00 0.00 66 1011.2
20260507112513 71 190 0.0 0.0 0.00 0.00 0.00 66 1011.2
20260507112012 72 190 0.0 0.9 0.00 0.00 0.00 65 1011.2
20260507111556 72 0 0.0 1.7 0.00 0.00 0.00 64 1010.6
20260507111519 72 190 0.0 0.9 0.00 0.00 0.00 65 1011.1
20260507111010 72 190 0.0 1.7 0.00 0.00 0.00 65 1011.0
20260507110511 72 190 0.0 1.7 0.00 0.00 0.00 64 1010.9
20260507110057 72 190 0.0 1.7 0.00 0.00 0.00 63 1010.4
20260507110009 72 190 0.0 1.7 0.00 0.00 0.00 64 1010.9
20260507105508 73 190 0.0 0.0 0.00 0.00 0.00 64 1010.8
20260507105007 73 190 0.0 0.0 0.00 0.00 0.00 63 1010.7
20260507104556 73 0 0.0 0.0 0.00 0.00 0.00 63 1010.3
20260507104508 73 190 0.0 0.0 0.00 0.00 0.00 63 1010.7
20260507104007 73 190 0.0 0.0 0.00 0.00 0.00 63 1010.7
20260507103507 73 190 0.0 1.7 0.00 0.00 0.00 63 1010.8
20260507103059 73 190 0.0 2.6 0.00 0.00 0.00 63 1010.3
20260507103005 73 190 0.0 2.6 0.00 0.00 0.00 63 1010.7
20260507102505 73 190 0.9 2.6 0.00 0.00 0.00 63 1010.7
20260507102006 73 190 0.0 0.0 0.00 0.00 0.00 62 1010.7
20260507101556 74 0 0.0 0.0 0.00 0.00 0.00 62 1010.2
20260507101508 74 190 0.0 0.0 0.00 0.00 0.00 62 1010.7
20260507101002 74 190 0.0 0.0 0.00 0.00 0.00 62 1010.7
20260507100502 74 190 0.0 0.0 0.00 0.00 0.00 62 1010.6
20260507100058 74 0 0.0 1.7 0.00 0.00 0.00 61 1010.2
20260507100001 74 190 0.0 1.7 0.00 0.00 0.00 62 1010.7
20260507095501 74 190 0.0 1.7 0.00 0.00 0.00 62 1010.7
20260507095100 74 190 0.0 1.7 0.00 0.00 0.00 62 1010.6
20260507094613 74 190 0.0 1.7 0.00 0.00 0.00 61 1010.5
20260507094600 75 0 0.9 1.7 0.00 0.00 0.00 60 1010.1
20260507094058 75 190 0.0 0.0 0.00 0.00 0.00 60 1010.6
20260507093541 75 190 0.0 0.0 0.00 0.00 0.00 60 1010.6
20260507093058 75 0 0.0 0.0 0.00 0.00 0.00 59 1010.0
20260507093042 75 190 0.0 0.0 0.00 0.00 0.00 60 1010.5
20260507092541 75 190 0.0 0.0 0.00 0.00 0.00 60 1010.5
20260507092042 75 190 0.0 0.0 0.00 0.00 0.00 60 1010.5
20260507091606 76 0 0.0 0.0 0.00 0.00 0.00 59 1010.1
20260507091552 75 190 0.0 0.0 0.00 0.00 0.00 60 1010.5
20260507091040 75 190 0.0 0.0 0.00 0.00 0.00 60 1010.5
20260507090540 75 190 0.0 0.0 0.00 0.00 0.00 60 1010.6
20260507090057 75 0 0.0 0.0 0.00 0.00 0.00 60 1010.0
20260507090045 75 190 0.0 0.0 0.00 0.00 0.00 60 1010.6
20260507085539 75 190 0.0 0.0 0.00 0.00 0.00 60 1010.6
20260507085039 75 190 0.0 2.6 0.00 0.00 0.00 60 1010.7
20260507084558 75 0 0.0 2.6 0.00 0.00 0.00 59 1010.3
20260507084541 75 190 0.0 2.6 0.00 0.00 0.00 60 1010.7
20260507084037 75 190 0.9 2.6 0.00 0.00 0.00 60 1010.7
20260507083537 75 190 0.0 3.5 0.00 0.00 0.00 59 1010.6
20260507083104 75 0 0.9 3.5 0.00 0.00 0.00 59 1010.2
20260507083039 75 190 0.9 3.5 0.00 0.00 0.00 59 1010.6
20260507082536 76 190 0.0 2.6 0.00 0.00 0.00 59 1010.6
20260507082035 76 190 0.0 2.6 0.00 0.00 0.00 59 1010.7
20260507081557 76 190 0.0 2.6 0.00 0.00 0.00 58 1010.3
20260507081534 76 190 0.0 2.6 0.00 0.00 0.00 58 1010.7
20260507081033 76 190 0.9 2.6 0.00 0.00 0.00 58 1010.7
20260507080532 77 190 0.0 1.7 0.00 0.00 0.00 57 1010.7
20260507080134 77 0 0.0 3.5 0.00 0.00 0.00 57 1010.3
20260507080031 76 190 0.0 3.5 0.00 0.00 0.00 57 1010.7
20260507075530 77 190 1.7 3.5 0.00 0.00 0.00 57 1010.8
20260507075029 77 190 0.0 4.3 0.00 0.00 0.00 56 1010.9
20260507074605 78 190 0.0 3.5 0.00 0.00 0.00 56 1010.6
20260507074538 78 190 0.9 3.5 0.00 0.00 0.00 56 1010.9
20260507074026 78 190 0.0 0.0 0.00 0.00 0.00 56 1010.9
20260507073525 78 190 0.0 0.0 0.00 0.00 0.00 55 1010.9
20260507073111 79 0 0.0 0.0 0.00 0.00 0.00 55 1010.7
20260507073025 78 190 0.0 0.0 0.00 0.00 0.00 55 1011.0
20260507072525 78 190 0.0 0.0 0.00 0.00 0.00 55 1011.0
20260507072024 78 190 0.0 1.7 0.00 0.00 0.00 55 1011.0
20260507071606 79 0 0.0 1.7 0.00 0.00 0.00 54 1010.8
20260507071523 79 190 0.0 1.7 0.00 0.00 0.00 55 1011.2
20260507071022 79 190 0.0 0.0 0.00 0.00 0.00 54 1011.2
20260507070522 79 190 0.0 1.7 0.00 0.00 0.00 54 1011.3
20260507070108 79 0 0.0 1.7 0.00 0.00 0.00 54 1011.0
20260507070020 79 190 0.0 1.7 0.00 0.00 0.00 54 1011.2
20260507065524 79 190 0.0 1.7 0.00 0.00 0.00 54 1011.1
20260507065020 79 190 0.0 2.6 0.00 0.00 0.00 54 1011.1
20260507064602 79 190 1.7 2.6 0.00 0.00 0.00 53 1010.9
20260507064520 79 190 0.9 2.6 0.00 0.00 0.00 53 1011.1
20260507064020 80 190 0.9 2.6 0.00 0.00 0.00 53 1011.2
20260507063520 80 190 0.9 1.7 0.00 0.00 0.00 52 1011.2
20260507063101 81 190 0.0 1.7 0.00 0.00 0.00 52 1011.0
20260507063019 81 190 0.0 1.7 0.00 0.00 0.00 52 1011.2
20260507062519 81 190 0.0 0.9 0.00 0.00 0.00 51 1011.2
20260507062019 82 190 0.0 0.0 0.00 0.00 0.00 52 1011.2
20260507061558 82 0 0.0 0.0 0.00 0.00 0.00 51 1011.0
20260507061520 81 190 0.0 0.0 0.00 0.00 0.00 52 1011.2
20260507061020 81 190 0.0 2.6 0.00 0.00 0.00 52 1011.2
20260507060518 81 190 0.0 3.5 0.00 0.00 0.00 52 1011.2
20260507060103 82 190 0.0 3.5 0.00 0.00 0.00 51 1010.9
20260507060018 82 190 0.9 3.5 0.00 0.00 0.00 52 1011.1
20260507055518 82 190 0.0 0.9 0.00 0.00 0.00 51 1011.1
20260507055018 82 190 0.0 3.5 0.00 0.00 0.00 51 1011.1
20260507054607 82 190 0.9 3.5 0.00 0.00 0.00 50 1010.9
20260507054518 82 190 0.0 3.5 0.00 0.00 0.00 51 1011.1
20260507054017 82 190 0.9 3.5 0.00 0.00 0.00 51 1011.1
20260507053518 82 190 0.9 3.5 0.00 0.00 0.00 50 1011.1
20260507053100 83 190 0.9 3.5 0.00 0.00 0.00 49 1010.9
20260507053017 83 190 0.9 3.5 0.00 0.00 0.00 50 1011.1
20260507052516 83 190 0.9 4.3 0.00 0.00 0.00 50 1011.1
20260507052017 83 190 0.9 4.3 0.00 0.00 0.00 49 1011.0
20260507051600 83 0 0.9 3.5 0.00 0.00 0.00 49 1010.9
20260507051524 83 190 0.9 3.5 0.00 0.00 0.00 49 1011.0
20260507051016 83 190 0.9 3.5 0.00 0.00 0.00 49 1011.0
20260507050516 83 190 0.0 4.3 0.00 0.00 0.00 49 1010.9
20260507050057 84 0 0.9 4.3 0.00 0.00 0.00 48 1010.7
20260507050016 84 190 0.0 4.3 0.00 0.00 0.00 48 1010.9
20260507045516 84 190 0.9 5.2 0.00 0.00 0.00 48 1010.9
20260507045016 84 190 0.9 5.2 0.00 0.00 0.00 47 1010.9
20260507044621 85 190 1.7 4.3 0.00 0.00 0.00 46 1010.7
20260507044516 85 190 0.9 4.3 0.00 0.00 0.00 47 1010.9
20260507044017 85 190 0.0 4.3 0.00 0.00 0.00 47 1010.9
20260507043516 85 190 0.9 4.3 0.00 0.00 0.00 46 1010.7
20260507043059 85 0 0.0 3.5 0.00 0.00 0.00 45 1010.5
20260507043015 85 190 0.0 3.5 0.00 0.00 0.00 46 1010.7
20260507042515 85 190 0.9 3.5 0.00 0.00 0.00 45 1010.6
20260507042014 86 190 0.9 3.5 0.00 0.00 0.00 45 1010.5